Theta_e
304 304 304 303 303 303 303 303 304 303 304 303 303 303 303 304 305 305 305 306 305 305 305 305 305 304 304 304 305 305 306 306 305 305 307 307 309 312 311 312 313 313 313 311 309 308 309 310 311 311 311 311 311 312 312 313 313 313 315 314 314 317 316 316 318 316 316 316 316 317 318 318 320 322 322 323 323 323 323 323 325 325 326 327 327 328 328 328
305 304 304 303 303 303 303 304 304 304 304 303 303 303 303 303 304 305 305 305 305 305 305 305 305 304 304 304 305 305 306 305 305 306 307 308 309 312 313 312 313 313 312 310 308 308 309 311 311 311 311 311 311 311 312 312 313 314 317 315 314 318 315 315 316 315 316 315 315 316 318 318 320 321 322 324 323 323 324 324 324 325 325 324 326 326 326 325
305 304 304 303 303 303 303 303 304 304 304 304 303 303 303 303 304 305 305 305 305 305 305 305 304 304 304 305 305 305 305 305 306 307 308 309 310 312 313 312 312 313 312 311 310 308 308 310 311 310 310 311 311 311 311 312 313 313 314 315 316 316 315 315 316 315 315 315 314 315 317 318 318 320 322 323 323 323 324 324 324 324 324 323 324 324 324 323
304 304 304 303 303 303 303 303 304 305 304 304 303 303 303 303 304 304 305 305 304 304 304 304 304 304 305 304 305 304 304 309 313 314 312 312 313 312 312 312 313 314 313 312 310 308 308 310 310 310 311 311 311 311 311 311 313 313 314 315 315 314 314 315 315 316 316 316 315 315 317 318 317 319 322 322 323 324 323 324 324 324 324 323 323 324 323 321
304 304 304 303 303 303 302 303 304 305 304 304 303 303 302 303 303 304 304 304 304 304 304 304 304 304 304 304 304 304 306 314 317 315 314 314 313 313 312 313 314 314 313 312 310 308 309 310 311 311 311 310 310 310 311 311 313 313 313 314 313 313 314 315 315 316 316 316 316 315 317 317 317 318 320 321 324 324 323 324 324 324 325 324 324 324 321 320
304 304 304 303 303 303 303 303 304 305 305 304 304 303 303 303 303 303 304 304 304 304 304 304 304 304 304 304 304 304 308 315 315 312 314 313 312 312 312 312 312 312 311 310 308 308 310 311 312 311 311 310 310 310 311 312 312 313 313 312 313 313 314 314 315 317 316 317 316 316 317 316 316 317 318 319 321 323 324 324 323 324 324 325 324 321 319 321
304 304 304 304 303 303 303 305 306 306 306 305 304 304 303 303 303 303 303 303 303 303 303 303 304 304 304 304 305 306 309 314 317 315 313 312 311 309 309 309 309 308 308 307 308 310 312 311 312 312 311 310 310 310 311 312 312 313 313 312 313 314 314 315 316 316 316 316 316 316 317 316 316 317 319 320 319 321 323 324 324 324 324 324 322 319 320 322
304 304 304 303 304 306 307 309 309 308 307 306 306 304 304 304 303 304 303 303 303 303 304 304 305 304 304 306 306 309 312 315 319 317 314 312 310 308 307 307 307 307 306 307 310 312 312 312 313 312 311 311 311 311 312 312 313 313 312 312 313 314 314 315 316 317 317 316 316 317 317 315 316 318 320 321 321 320 323 324 324 324 324 323 320 320 322 322
304 304 306 308 310 312 313 313 313 312 310 308 306 305 304 304 304 304 304 305 304 305 305 305 305 304 306 307 308 314 317 315 317 315 314 311 308 307 308 308 307 306 307 309 311 312 313 313 313 313 312 312 313 312 312 313 314 314 313 313 313 315 315 315 316 316 316 316 315 316 317 316 317 319 318 321 323 321 323 324 324 324 321 320 319 321 323 322
306 309 311 313 314 314 313 314 313 313 312 311 308 306 305 304 304 304 304 305 305 305 305 305 305 305 307 307 310 319 319 313 314 313 311 309 308 309 309 309 308 308 309 311 312 313 314 314 314 314 313 312 312 313 312 313 314 313 313 313 313 314 315 315 316 316 316 316 316 316 317 316 316 318 316 320 324 323 324 323 322 320 318 318 321 323 323 322
312 314 314 314 313 313 312 312 312 312 312 311 310 308 306 304 304 304 304 305 304 305 305 305 305 306 307 307 310 318 316 312 314 312 310 309 310 312 311 313 312 312 313 313 314 314 314 314 314 314 313 313 313 313 313 312 314 313 313 314 313 314 315 315 315 315 316 316 315 316 315 315 315 316 317 321 323 323 323 322 319 316 316 319 322 323 323 322
315 315 313 313 313 312 312 312 312 312 311 310 310 308 306 304 304 304 305 305 305 305 305 306 306 306 308 308 310 316 314 312 313 311 311 310 313 314 314 314 314 314 315 315 315 314 314 313 313 314 313 313 314 313 314 314 313 313 314 315 316 317 317 315 315 315 316 315 315 315 315 318 318 315 318 321 322 323 322 321 319 317 317 320 323 323 323 323
316 314 313 314 313 312 312 312 312 312 311 310 310 307 305 304 304 305 305 305 305 305 306 306 307 307 308 309 313 316 315 314 313 312 312 311 313 313 313 313 313 313 312 313 313 313 313 313 313 314 314 313 313 313 314 313 313 314 314 315 317 318 319 316 314 315 315 315 315 314 316 322 322 313 316 321 321 321 321 321 320 320 319 319 322 322 323 323
316 314 314 314 314 312 312 312 312 312 311 311 311 309 307 305 304 305 305 306 305 306 306 306 307 307 308 311 316 316 315 316 315 313 312 312 312 311 311 312 312 312 312 312 312 313 313 313 313 314 314 313 313 314 314 313 314 315 313 317 317 314 319 319 313 315 315 315 315 314 316 321 321 314 314 318 320 322 320 321 321 321 321 321 322 323 323 323
315 315 314 314 314 313 312 311 312 313 313 313 312 312 310 308 306 305 305 306 306 306 307 307 309 310 310 312 317 317 315 315 315 314 312 312 312 311 312 312 312 312 312 312 313 313 313 313 313 314 314 314 314 313 315 314 317 317 312 321 323 313 317 318 312 315 315 315 314 313 316 317 316 316 314 314 318 321 320 320 321 321 322 322 323 324 323 322
314 315 315 314 313 313 313 312 312 312 313 314 315 315 314 311 309 307 306 306 306 307 306 308 312 314 314 315 316 318 316 314 314 314 313 312 312 311 311 311 312 312 312 313 313 313 313 314 313 314 313 313 314 315 315 317 321 323 316 318 322 315 314 316 313 313 313 314 313 314 319 319 317 315 315 314 316 320 320 319 321 321 322 323 324 323 322 321
311 314 314 313 312 312 312 312 312 311 313 314 315 317 317 315 312 310 308 305 306 307 306 309 313 314 316 316 315 316 316 315 314 313 313 312 312 312 311 311 311 311 312 313 313 313 313 313 313 314 317 318 318 318 318 317 320 327 324 319 320 318 313 315 315 313 313 314 313 314 318 320 320 316 314 315 314 315 317 318 320 321 322 322 323 322 321 320
309 311 312 312 312 311 311 310 311 311 312 314 315 318 321 320 316 312 310 309 306 307 308 309 312 316 317 315 315 316 316 315 314 314 313 313 313 311 311 312 311 312 312 312 313 314 313 313 314 318 325 327 321 318 319 319 319 323 325 323 323 322 316 316 317 314 312 314 315 314 315 317 319 318 314 313 314 313 314 317 320 321 321 322 323 322 321 320
307 309 310 311 311 310 310 309 309 310 311 315 316 318 320 320 320 316 313 312 310 310 313 312 313 317 317 314 316 315 316 316 313 313 313 313 312 312 312 312 312 312 311 314 315 313 313 314 315 316 321 325 322 319 318 321 321 321 323 325 322 319 320 319 317 317 315 313 315 314 313 315 317 320 318 313 314 313 313 317 319 320 321 321 322 322 321 320
306 307 308 309 309 309 309 308 308 311 313 316 316 318 318 316 320 320 314 314 314 314 316 315 314 314 315 317 316 314 315 315 313 313 313 312 312 312 312 311 312 313 314 317 319 315 313 314 317 317 320 325 328 328 324 325 327 324 323 323 319 317 319 318 317 319 319 313 315 317 315 315 316 321 321 313 314 315 313 315 317 320 320 320 321 322 321 321
305 306 306 307 308 308 308 308 309 312 314 315 315 317 318 315 317 317 314 314 314 315 316 316 316 315 316 318 317 315 314 314 314 314 313 312 312 311 312 312 313 315 317 316 316 317 314 314 319 323 326 328 331 334 330 325 327 327 324 319 317 319 317 318 321 323 323 320 319 321 320 320 323 325 321 315 315 316 312 313 315 318 320 319 321 322 321 322
306 305 305 306 306 307 308 308 311 313 313 315 316 316 316 315 315 314 314 315 314 314 315 315 316 316 317 317 317 317 315 315 314 314 314 312 312 311 311 313 312 317 320 314 314 319 318 318 322 324 326 326 328 332 331 326 325 325 324 320 318 321 317 323 333 328 327 327 322 322 322 325 330 327 321 317 316 316 314 314 314 317 319 318 320 321 321 321
306 306 306 305 307 308 309 310 312 314 315 315 316 316 314 314 316 315 314 315 315 312 313 316 317 317 318 317 317 316 316 315 314 314 314 311 312 312 311 312 313 316 317 315 317 319 320 324 324 319 322 327 325 327 331 330 328 325 322 319 320 323 318 321 331 330 329 325 320 322 323 328 334 329 323 318 314 315 316 315 315 315 317 318 319 321 321 321
306 306 305 306 309 311 312 313 314 315 315 315 315 314 314 315 317 316 313 316 317 315 313 316 317 317 318 317 316 316 315 315 315 314 314 312 312 311 310 312 312 313 313 316 320 319 319 324 322 319 325 329 323 324 330 328 327 330 325 318 320 322 320 320 324 330 334 329 325 323 322 336 341 329 323 320 314 315 315 315 316 315 317 318 318 319 320 321
305 306 306 307 311 314 313 314 315 314 314 315 313 313 314 315 315 314 315 320 324 321 317 316 317 317 317 316 315 315 314 315 315 314 314 313 312 311 311 312 311 315 316 315 317 317 317 317 318 322 326 325 322 324 329 327 325 329 332 326 323 324 324 324 322 323 325 327 329 321 318 337 345 328 323 323 319 318 315 313 315 314 315 316 316 317 318 321
306 306 306 306 310 312 312 313 313 313 314 314 313 313 313 314 313 313 318 327 330 326 319 316 316 316 316 315 315 315 315 316 315 314 315 313 312 312 312 313 312 315 319 316 315 320 319 318 319 325 325 322 323 322 324 330 324 321 331 332 326 325 323 322 322 322 322 322 327 323 317 330 335 326 324 324 321 321 318 315 314 313 314 315 316 318 318 319
306 306 306 306 307 308 308 310 312 315 316 314 314 314 311 310 312 314 321 329 329 323 317 316 314 314 315 315 315 316 316 316 314 313 314 313 313 312 313 316 314 313 317 315 316 321 320 320 320 323 324 321 322 321 324 332 325 321 332 331 323 322 320 322 324 323 324 322 325 328 321 320 326 324 322 321 320 321 321 319 316 313 314 315 316 318 318 317
305 305 306 306 307 307 309 311 314 316 316 315 315 313 310 310 314 319 326 326 322 317 315 315 314 313 314 315 316 316 316 315 314 313 313 312 313 312 312 315 313 314 315 312 315 320 319 321 323 323 322 320 324 327 328 327 320 326 338 328 320 321 321 325 322 319 323 318 321 333 324 316 324 328 325 321 319 321 321 322 320 315 313 314 316 317 318 317
305 306 306 307 311 312 311 314 316 316 316 316 315 312 311 315 318 324 328 324 317 315 315 314 314 314 314 314 314 315 314 314 315 314 313 312 312 312 313 312 311 312 312 312 317 321 318 320 325 325 322 323 328 329 328 324 319 326 332 323 321 324 323 324 318 318 325 319 320 331 324 316 322 329 326 319 318 321 322 322 320 315 313 315 316 316 318 317
304 306 306 308 314 317 316 318 317 315 314 313 311 309 311 318 325 326 327 324 318 315 314 313 314 314 313 313 313 313 313 312 314 313 312 312 312 312 312 312 311 314 319 319 319 319 315 313 318 319 320 325 327 322 320 320 319 320 320 318 323 327 327 329 325 320 320 322 325 326 321 318 319 326 327 321 319 320 320 319 318 315 313 314 315 316 316 317
304 306 306 307 312 315 315 314 312 311 310 308 308 311 316 324 331 328 324 321 319 318 316 315 316 314 313 314 314 314 313 312 313 312 312 312 312 312 311 312 312 316 325 325 318 318 317 312 315 317 316 318 318 316 315 315 317 319 320 320 323 324 327 333 331 321 316 322 329 323 319 318 318 323 325 322 322 320 318 317 318 318 315 313 315 316 316 316
304 305 307 306 308 311 310 308 309 308 309 312 312 317 324 327 329 328 325 319 318 319 317 315 313 313 314 314 314 315 313 313 313 312 313 312 313 313 311 316 317 314 319 322 317 319 320 317 316 315 315 314 314 316 315 315 317 318 320 322 320 319 321 325 326 322 320 322 325 324 319 318 319 321 320 320 321 319 317 315 316 318 314 314 316 316 315 316
307 308 309 308 310 312 309 308 310 309 310 315 316 322 329 329 327 328 326 319 315 315 313 310 310 311 311 313 314 314 312 315 315 313 313 312 313 314 311 316 320 315 316 319 317 317 321 324 321 316 316 315 314 316 315 317 318 314 317 320 321 318 316 319 320 319 320 321 324 324 319 320 323 322 321 321 319 316 314 314 315 316 315 315 316 315 316 317
311 314 314 314 315 315 313 311 311 311 311 313 319 325 327 327 328 327 321 315 312 311 310 309 310 311 311 310 312 313 312 315 316 314 314 313 313 315 314 312 314 315 315 315 317 318 318 322 326 319 316 315 314 315 316 319 320 316 316 317 319 322 320 320 319 317 319 322 323 320 318 324 327 322 321 318 313 314 314 314 316 315 315 316 316 315 316 316
312 315 316 318 318 316 316 314 311 312 311 314 325 329 325 325 328 324 315 314 312 309 309 310 310 311 313 313 313 311 311 312 314 315 316 314 316 320 320 316 314 314 316 316 318 319 313 317 325 318 313 315 313 312 313 314 317 318 316 313 315 321 322 320 318 321 322 322 322 319 320 327 326 322 320 314 313 316 314 315 316 315 316 315 315 315 314 316
312 315 317 320 319 316 318 316 311 311 312 320 328 329 327 327 325 319 314 313 310 308 310 312 312 313 313 317 317 312 310 312 313 316 318 317 318 320 318 318 316 313 316 321 322 318 314 319 323 315 312 315 311 312 312 309 317 322 316 314 316 315 316 317 319 322 319 318 321 318 320 325 321 320 321 315 315 317 314 315 315 313 315 314 314 315 314 314
314 317 317 319 318 317 318 315 310 309 314 323 328 328 329 326 319 316 314 311 310 309 311 312 314 313 310 316 319 312 310 315 314 313 317 317 317 316 314 314 315 313 315 319 320 320 321 324 323 315 313 314 310 312 314 309 314 319 315 315 318 317 319 319 319 322 318 318 322 319 319 324 321 320 322 317 316 317 316 316 314 313 314 314 314 315 314 315
313 316 317 319 319 318 316 311 307 310 318 326 329 328 327 321 315 313 312 310 310 311 312 312 313 313 309 313 317 312 309 313 313 311 314 315 313 315 314 312 314 313 311 315 318 319 321 324 323 317 312 313 312 312 317 315 311 311 312 314 317 320 322 318 316 319 318 316 321 322 320 320 320 321 320 316 317 318 317 318 316 314 313 312 313 314 313 314
311 314 317 318 317 316 313 308 307 313 323 329 329 327 325 319 313 311 311 311 311 312 313 311 311 313 312 311 313 311 309 311 312 311 313 313 312 313 313 312 313 312 310 314 317 317 319 319 321 322 314 312 317 316 317 318 312 310 311 312 316 320 320 317 316 317 317 316 319 322 319 319 322 323 318 316 317 317 318 320 319 315 312 311 311 311 311 311
311 316 319 314 312 312 310 309 311 317 326 329 329 326 320 315 312 311 311 311 312 313 313 311 310 312 314 312 311 312 310 309 310 311 312 313 312 313 313 312 313 312 311 314 316 317 320 317 320 326 318 313 319 317 313 314 313 312 313 313 316 317 316 316 316 316 318 320 321 321 320 323 327 323 319 318 317 316 317 319 318 314 311 310 310 310 309 309
310 318 319 312 310 311 309 310 314 321 327 326 322 319 314 312 311 310 311 311 311 312 312 312 311 311 313 313 313 312 310 310 310 310 311 311 311 313 313 312 312 311 315 320 318 318 321 319 320 323 319 316 319 315 310 310 310 311 311 311 312 315 316 315 315 318 321 321 322 321 319 324 326 321 321 319 316 316 315 314 314 312 310 310 310 309 309 308
310 316 316 311 311 310 308 312 314 315 321 320 314 312 311 310 310 309 309 310 311 310 310 312 311 311 312 312 311 310 308 310 310 309 311 309 309 312 313 311 311 311 316 320 316 314 319 320 317 316 316 314 313 312 308 308 310 310 311 312 313 316 318 315 316 321 321 317 319 319 318 324 325 320 321 318 312 312 311 310 311 309 309 310 309 309 309 308
310 311 312 311 311 309 309 316 316 313 315 313 309 309 310 309 309 308 308 309 310 310 310 311 310 310 311 310 309 308 308 310 311 310 312 309 308 311 312 311 311 310 313 317 315 313 316 317 315 316 319 316 314 315 312 312 314 311 312 315 313 313 315 315 317 321 319 316 319 317 316 324 326 319 315 311 309 309 308 309 309 308 309 309 308 309 309 308
310 309 310 311 311 309 309 313 314 315 315 310 308 309 308 308 309 308 308 309 310 311 311 310 309 309 309 308 308 308 308 310 311 311 312 310 309 310 309 309 311 310 311 315 316 312 314 318 316 315 316 316 316 317 316 320 320 312 309 312 311 310 312 316 318 318 317 317 320 318 318 324 325 317 311 309 309 309 308 308 309 309 308 308 308 308 308 307
309 309 310 309 308 309 309 308 309 312 313 310 310 311 308 307 308 308 308 309 309 310 310 310 308 308 309 309 309 309 308 308 311 311 310 310 310 310 308 308 311 311 311 314 314 311 314 319 317 313 313 313 314 314 315 318 316 309 307 308 309 308 310 314 315 313 315 318 317 317 320 320 317 313 313 313 312 311 309 308 309 309 308 308 307 307 307 307
309 310 310 309 307 306 307 307 305 308 310 310 311 313 309 308 308 308 308 309 309 309 309 309 309 309 310 310 310 311 309 308 310 310 310 310 310 310 308 309 311 312 313 312 311 312 315 316 316 316 315 313 313 315 315 313 310 309 308 307 308 310 312 314 311 311 317 317 314 315 318 315 311 310 312 312 312 313 312 309 308 308 307 307 307 307 308 308
308 310 309 308 308 308 307 306 304 306 308 308 310 311 310 309 309 308 309 309 308 308 309 310 309 308 310 310 310 310 309 309 309 309 310 311 311 309 307 309 311 311 311 309 308 312 314 313 314 316 314 312 312 312 311 308 307 308 307 306 307 310 311 311 311 313 315 312 311 316 316 312 309 309 309 309 310 313 312 308 307 307 307 308 308 308 309 309
307 308 307 306 307 309 308 307 305 306 307 308 311 311 310 311 311 310 310 309 308 308 309 311 310 307 307 309 310 309 309 311 313 313 312 312 312 311 310 310 309 307 308 307 307 311 311 311 314 314 311 311 310 309 308 307 306 306 307 308 309 309 310 309 310 314 314 309 310 313 311 309 308 307 308 308 309 309 309 307 307 307 308 309 309 309 309 309
305 306 306 306 307 307 306 306 306 307 308 309 313 313 311 311 312 311 308 308 310 309 308 309 308 306 306 308 310 310 308 309 312 313 312 310 310 311 312 312 309 306 306 307 307 309 309 313 316 311 309 310 308 308 308 307 307 307 308 308 309 310 311 310 310 313 311 310 311 310 309 309 307 306 307 307 307 307 307 307 308 308 309 309 309 309 309 308
303 305 304 305 307 306 306 307 307 308 309 308 310 312 310 309 311 309 306 307 309 308 307 307 307 306 306 307 309 307 306 308 310 309 309 309 309 310 310 310 309 306 305 306 307 306 307 312 314 308 307 312 311 309 308 307 308 308 306 307 308 309 311 310 309 309 307 308 311 310 310 309 307 305 305 304 305 307 307 308 309 309 309 309 308 308 308 308
301 303 303 305 308 308 307 307 306 307 310 308 307 309 308 306 306 307 307 306 305 306 307 307 306 307 307 307 308 306 304 307 309 306 305 306 307 307 307 308 307 305 306 307 307 306 306 311 313 309 308 311 313 311 309 308 309 307 305 306 307 308 309 308 308 309 307 307 308 308 308 309 306 304 305 306 307 307 308 308 309 308 308 308 308 308 308 308
300 301 302 304 307 307 306 307 306 307 308 306 306 307 307 304 303 305 308 307 305 305 306 305 305 307 307 307 308 306 303 304 305 303 303 304 304 303 304 305 304 304 307 306 306 307 307 306 310 310 307 309 311 309 308 308 308 308 310 313 310 308 309 307 308 310 308 306 307 308 309 308 307 308 311 310 308 307 309 309 308 308 308 308 308 308 308 308
Wind_Speed
12 11 9 8 8 9 9 9 9 9 8 7 5 4 3 3 4 5 5 5 6 6 6 6 6 5 6 7 9 10 10 10 10 14 15 9 11 11 11 11 8 5 4 5 3 3 6 8 8 6 3 2 4 5 4 5 7 4 1 2 3 4 5 3 3 4 3 8 9 5 7 16 13 17 24 21 23 25 19 17 19 16 22 29 29 39 38 31
11 10 8 7 7 8 8 9 9 9 9 8 6 4 3 2 3 3 3 5 5 5 5 5 4 5 6 8 10 11 11 10 12 14 10 7 12 12 10 11 7 4 4 4 2 3 7 8 6 2 4 5 4 5 5 4 4 5 2 2 4 5 4 2 4 7 6 9 10 5 2 14 16 15 22 15 13 23 19 16 27 28 26 29 35 37 33 31
10 9 7 6 6 7 8 9 10 9 9 8 6 5 3 1 1 1 2 4 4 4 4 4 4 5 7 8 10 11 10 10 13 10 3 6 10 9 9 9 7 4 4 4 4 5 7 7 4 4 8 8 8 8 6 4 3 5 4 2 5 4 2 5 7 10 10 10 10 6 5 14 14 14 19 14 13 19 15 16 24 28 31 35 36 34 32 30
10 9 7 5 6 7 8 9 9 9 9 9 7 5 3 2 1 1 2 3 4 4 3 3 4 5 7 9 9 9 9 9 8 2 1 4 5 5 6 5 5 5 6 7 7 7 8 8 4 6 7 8 11 9 6 7 6 3 5 5 5 3 3 9 13 15 14 11 13 9 5 9 10 15 22 20 11 7 15 28 31 33 39 39 37 35 32 28
9 9 7 5 6 7 8 9 9 10 9 9 8 5 4 2 1 2 2 3 3 3 3 3 4 5 7 7 8 7 6 4 2 2 2 3 3 4 3 3 5 7 9 10 9 9 10 8 6 7 5 7 8 5 6 13 11 3 5 9 9 8 4 14 19 17 14 8 13 12 8 2 7 13 20 19 8 7 20 33 39 41 43 42 40 35 30 28
9 8 6 5 5 7 8 9 9 10 9 9 8 6 4 2 1 1 2 3 3 3 2 3 4 5 5 6 7 6 3 1 2 3 1 2 2 3 3 4 6 9 11 10 10 10 10 7 6 6 3 4 4 5 9 13 11 4 8 12 14 13 8 12 13 11 10 5 8 8 8 5 9 10 9 12 8 18 30 34 37 39 42 43 40 34 31 30
8 8 7 6 6 7 8 9 9 9 9 9 8 7 5 3 1 0 2 2 3 2 2 3 3 3 3 5 5 5 7 6 4 4 1 3 3 2 3 5 6 9 10 9 12 12 10 8 7 6 2 4 5 7 11 11 10 7 7 12 16 18 16 17 11 9 9 6 7 5 8 7 8 6 4 6 7 22 31 33 36 38 41 41 36 33 32 31
9 8 8 7 8 9 9 10 10 10 9 8 8 7 5 4 2 1 1 1 1 1 2 2 2 2 1 3 4 5 9 7 4 4 4 5 4 1 4 5 6 8 9 12 14 12 8 9 9 7 2 5 6 7 10 8 6 8 9 13 15 16 18 19 11 7 5 3 5 5 6 8 8 10 5 7 13 25 32 33 35 38 39 36 35 33 31 30
9 9 9 9 9 10 10 10 10 10 9 8 8 7 6 5 3 2 1 1 1 1 1 1 1 1 0 3 5 6 6 3 4 4 3 3 2 3 5 5 6 8 10 14 14 11 7 5 7 7 4 9 11 9 9 5 4 8 14 17 12 9 11 14 11 7 3 1 3 4 3 5 12 13 4 9 22 29 34 36 37 39 37 35 34 31 30 31
10 10 10 10 10 10 10 10 10 10 9 9 8 7 7 5 3 3 2 1 0 1 1 1 1 1 2 3 2 3 2 4 5 6 2 3 4 6 6 5 7 9 11 13 12 11 7 5 8 10 10 12 10 7 8 5 7 12 17 19 11 6 10 13 9 7 5 2 1 3 3 5 6 8 1 10 26 34 37 37 36 37 36 36 35 32 30 32
10 9 9 10 10 11 11 11 11 10 10 9 8 7 6 5 3 3 2 1 1 1 1 2 1 2 3 5 5 3 3 5 5 8 3 5 8 8 7 7 6 5 5 8 9 8 9 12 13 13 10 8 6 7 9 5 9 18 13 10 6 1 5 9 8 8 7 2 2 4 1 5 4 4 9 18 27 36 37 36 35 35 35 36 35 34 32 31
8 8 9 10 11 11 12 12 11 11 10 10 9 8 6 4 3 3 2 1 1 1 2 3 2 3 4 9 10 4 2 1 3 6 3 4 7 6 3 2 3 4 7 8 9 9 11 15 13 11 9 5 5 6 9 13 16 17 8 2 2 6 3 4 5 7 6 2 4 5 3 5 4 2 19 28 29 35 38 35 34 34 35 36 36 35 32 31
7 7 8 9 10 11 12 13 12 11 11 11 11 10 8 5 3 2 1 1 1 2 2 2 2 4 6 10 7 1 1 4 4 3 0 0 4 3 1 2 6 8 10 12 12 10 11 14 13 14 12 7 3 4 11 19 17 12 4 1 2 7 4 5 3 6 5 3 9 7 1 6 6 7 17 27 27 30 34 33 32 34 35 35 36 35 33 32
5 6 7 8 9 10 11 13 12 10 10 10 10 10 9 7 4 3 2 1 0 1 1 1 4 6 8 9 3 1 5 7 8 10 6 2 3 2 1 1 4 6 9 12 12 11 12 14 14 14 11 6 6 9 12 12 8 4 3 3 3 3 5 6 2 5 3 5 13 11 2 7 7 11 11 20 27 27 29 31 31 33 34 35 36 35 35 34
4 5 6 7 8 8 9 11 12 10 9 9 9 9 9 7 5 3 2 2 0 1 0 2 5 7 10 10 4 4 6 9 11 12 10 6 6 6 4 3 3 4 6 10 10 10 11 12 12 10 9 8 8 8 6 5 4 3 1 4 3 0 5 8 3 7 6 4 11 11 2 7 6 11 11 12 27 30 27 29 31 33 34 34 35 35 36 34
4 4 5 7 7 7 8 9 10 10 9 9 10 10 8 6 5 4 2 2 1 1 1 2 3 5 7 7 4 6 8 9 10 10 11 10 10 9 5 6 7 7 7 8 8 9 10 10 10 9 8 7 3 3 5 4 5 4 1 2 3 2 3 6 5 8 12 3 6 9 4 4 5 8 11 8 22 32 27 26 30 33 34 34 35 36 36 35
4 3 4 5 6 7 7 7 8 9 9 9 11 11 8 6 5 4 3 3 2 2 2 3 4 7 8 6 4 6 8 7 6 9 12 11 12 11 9 11 12 12 12 10 10 11 12 9 5 6 4 2 2 4 4 4 4 4 2 1 3 3 2 3 6 8 9 7 6 8 5 5 5 6 8 9 19 31 27 27 30 31 33 33 34 36 37 38
4 3 3 4 5 6 6 6 6 7 8 9 11 11 8 6 5 4 4 4 4 3 3 6 5 5 6 7 7 6 5 6 5 7 11 11 11 10 11 13 12 13 13 11 11 11 10 6 1 1 3 4 3 5 2 3 2 2 1 1 3 2 1 3 5 5 7 10 8 8 7 9 7 5 5 7 18 26 25 26 29 30 33 33 33 37 38 39
4 4 3 4 4 5 6 6 5 5 6 8 11 10 8 8 5 2 4 5 5 3 2 6 6 2 5 12 14 8 4 6 6 5 8 9 10 11 10 11 11 10 7 4 5 5 5 2 2 0 3 3 3 4 6 7 6 4 3 4 1 3 3 4 6 5 4 8 7 9 9 10 7 7 5 7 13 18 22 26 28 31 34 33 34 38 39 40
5 4 4 4 4 6 6 6 4 3 4 8 11 10 7 8 4 1 6 11 11 10 11 13 12 13 16 18 15 3 5 9 8 7 7 7 10 11 10 11 9 6 2 3 3 3 3 2 2 4 6 7 7 6 7 5 6 4 1 3 2 3 3 5 5 7 2 4 0 1 4 6 6 7 7 7 7 8 16 22 26 30 32 33 35 37 40 41
5 4 4 4 5 6 6 5 3 3 6 9 11 9 7 8 3 3 10 14 17 15 17 18 18 21 23 20 13 4 5 6 7 8 5 7 9 7 7 8 3 3 4 4 3 2 2 3 6 8 10 9 7 6 5 3 4 4 3 2 3 2 3 6 4 7 4 4 3 4 3 6 6 5 8 7 4 6 11 15 21 29 32 33 36 37 40 40
5 4 4 4 4 4 4 4 3 4 7 8 9 8 7 7 3 7 10 12 18 17 17 18 19 22 22 20 13 11 13 7 6 8 6 8 10 7 5 4 3 3 3 0 1 2 1 3 10 12 9 5 3 3 5 3 4 4 2 2 3 2 2 5 5 7 5 5 2 3 3 5 7 5 6 6 6 9 14 15 18 27 31 31 33 36 38 37
5 4 4 3 2 2 2 3 4 6 8 8 9 8 6 5 4 11 11 8 14 17 16 15 17 20 19 16 10 12 17 10 6 10 9 10 12 11 7 3 3 3 3 0 3 1 2 6 12 11 6 4 3 2 5 4 3 3 2 2 3 4 1 2 5 7 6 3 2 2 3 5 6 6 5 7 10 9 13 17 16 19 28 34 36 38 40 36
4 4 3 2 2 1 2 2 3 7 9 8 9 8 6 5 7 13 11 5 7 11 11 12 15 18 18 15 10 11 15 10 7 9 9 13 13 10 8 5 3 2 3 5 6 5 6 10 9 3 6 8 5 2 5 4 2 2 2 3 3 5 2 4 4 5 6 5 1 4 5 5 4 5 6 6 5 5 10 14 18 20 24 31 33 34 38 38
4 4 3 3 3 1 1 2 5 9 7 8 9 8 8 7 10 14 9 1 4 6 6 7 10 12 12 9 7 8 8 8 11 11 10 16 16 7 5 5 4 3 6 6 5 4 8 13 8 2 5 8 6 5 4 5 0 4 3 6 6 6 6 3 2 3 4 5 4 1 2 5 5 4 6 7 5 5 7 8 16 25 26 25 27 28 33 38
3 3 2 2 3 3 2 3 7 8 5 6 9 11 12 11 12 11 4 3 3 4 2 2 5 6 6 8 8 4 1 5 10 12 12 16 16 6 3 3 2 3 5 3 2 2 5 7 4 5 6 6 4 3 4 5 4 2 4 6 6 4 3 1 3 4 3 2 4 1 3 5 6 4 7 6 5 8 7 5 13 25 27 22 25 31 34 37
3 3 2 1 2 3 1 2 5 7 5 6 9 13 15 13 10 7 2 4 3 3 1 2 3 3 4 7 9 4 1 4 5 7 13 15 13 7 4 4 1 3 2 3 2 3 3 4 2 5 4 4 3 2 4 5 7 2 6 5 3 2 2 2 4 4 2 3 4 4 3 3 4 5 8 5 5 9 9 8 10 20 27 23 26 35 38 36
3 3 2 1 2 2 3 3 2 5 6 8 10 13 13 8 6 3 3 3 3 2 1 3 3 3 4 5 9 8 3 2 0 7 14 12 9 6 4 5 3 4 2 4 2 5 2 2 2 5 4 3 3 5 6 6 4 6 7 5 4 3 4 4 5 3 1 2 4 6 1 1 5 5 5 3 4 8 9 11 9 15 26 27 28 34 37 35
2 2 2 1 3 4 4 2 2 5 7 10 13 13 10 5 5 2 4 2 3 2 0 2 2 4 6 6 8 9 7 5 3 10 14 11 10 7 3 6 5 3 3 4 3 6 4 6 7 5 4 4 5 6 5 7 3 6 4 2 1 2 3 3 4 3 3 3 4 7 1 1 5 5 5 3 3 6 8 9 8 14 25 28 30 34 34 32
2 2 2 0 3 3 2 1 4 6 8 12 14 12 7 5 3 4 3 1 3 1 2 3 2 3 4 3 3 6 6 6 7 12 13 9 10 8 4 5 3 1 3 1 2 6 6 6 6 3 5 6 6 5 5 8 6 2 3 2 4 5 4 3 3 4 3 2 6 7 3 3 3 6 4 3 4 5 6 8 9 12 21 27 31 33 34 31
2 2 2 1 1 1 2 4 6 7 9 11 11 9 5 3 3 5 0 3 2 2 1 1 2 1 3 3 2 3 2 4 6 10 8 5 4 3 1 1 1 3 4 4 3 5 5 3 3 4 8 8 5 4 3 3 2 4 3 2 3 4 5 5 5 4 2 4 7 6 2 5 2 6 5 6 7 6 5 8 10 10 14 24 31 34 35 34
4 3 3 2 2 3 5 6 6 7 9 9 10 6 1 3 3 1 2 2 1 3 3 3 4 3 2 4 3 4 3 3 4 7 6 3 3 3 2 3 3 3 3 4 3 6 4 3 3 2 7 7 4 2 4 4 4 5 3 4 3 2 4 3 4 2 1 6 6 4 1 4 4 8 8 8 8 7 8 9 12 11 14 23 30 33 34 34
4 4 4 4 5 7 8 6 6 7 8 10 9 4 4 5 1 3 2 2 1 3 3 4 5 4 4 3 2 3 3 4 5 7 6 4 4 4 3 4 5 4 2 4 1 3 4 5 5 3 4 3 5 3 2 3 2 4 3 3 3 2 2 2 4 2 2 5 6 5 3 2 4 5 7 7 7 10 12 13 16 13 14 20 24 29 30 32
4 5 5 4 4 8 10 8 7 8 11 12 7 3 5 2 3 3 2 2 2 3 3 3 5 6 5 2 3 3 2 4 5 4 4 3 2 3 4 3 5 4 2 2 1 1 1 4 4 0 2 1 3 4 6 4 2 3 5 5 4 3 3 3 3 3 4 4 4 4 2 3 2 4 6 3 6 11 13 14 18 16 8 11 16 20 26 30
3 3 4 4 5 7 10 11 10 10 12 12 6 4 2 2 3 1 1 3 2 3 4 5 5 5 5 4 4 6 5 3 4 3 1 2 3 4 3 4 6 5 3 2 3 2 3 5 6 3 2 3 2 3 2 4 1 2 2 5 2 4 5 3 3 5 4 1 3 2 2 4 4 5 7 7 9 14 20 20 19 19 17 12 8 4 9 19
6 4 2 3 5 6 9 13 13 10 10 7 5 3 2 4 3 1 1 2 1 2 4 6 5 3 4 4 4 8 8 4 5 5 2 2 2 3 2 3 5 5 5 4 3 1 2 4 6 3 2 3 1 5 3 2 3 2 1 3 3 3 6 3 3 1 3 1 4 1 2 5 3 4 6 8 9 11 14 15 16 20 25 24 21 20 13 3
6 6 2 1 5 7 9 13 12 8 6 4 4 1 4 3 2 1 1 1 1 2 4 3 3 1 2 4 3 6 8 5 5 5 3 3 3 3 2 2 3 1 7 6 2 2 4 2 6 2 2 2 2 5 5 1 3 2 1 5 3 2 3 2 0 3 2 1 4 2 3 4 2 3 5 8 10 9 9 9 14 20 26 26 26 27 24 19
6 7 4 2 4 7 10 12 9 5 2 4 1 3 3 2 1 2 1 1 2 3 4 2 2 0 1 2 3 3 5 4 4 4 3 2 2 3 3 3 6 8 3 3 2 1 3 0 6 2 1 4 5 6 4 5 7 5 2 3 1 1 1 0 1 1 1 2 3 4 4 3 2 4 2 7 6 6 7 9 11 15 19 23 27 31 29 26
8 8 4 2 4 6 8 9 6 2 2 2 1 3 2 2 2 2 1 1 1 3 3 2 2 1 1 1 3 2 1 1 3 3 2 2 3 3 6 3 4 10 12 7 3 1 2 2 5 4 1 3 5 5 1 5 5 3 2 3 1 2 3 2 2 3 3 3 3 3 4 2 4 5 3 5 3 5 7 7 8 11 18 24 28 30 31 30
8 6 2 4 5 6 10 11 5 1 2 1 3 3 4 3 2 2 3 3 1 2 1 3 3 1 2 1 2 3 1 1 2 2 2 2 3 4 5 4 2 6 10 11 5 2 3 2 3 5 4 3 3 0 3 1 2 3 4 5 4 2 0 0 1 2 3 3 3 1 3 4 5 4 6 7 5 6 7 6 6 10 18 24 25 27 28 29
10 4 1 4 6 9 14 10 3 2 2 1 2 2 5 6 5 6 5 5 3 1 2 1 2 1 2 0 2 2 2 2 1 1 2 2 3 2 4 4 3 3 5 7 5 1 1 1 2 2 3 1 4 4 2 2 3 3 2 3 3 3 1 1 3 2 1 3 4 3 3 6 5 4 5 7 6 6 8 9 7 10 16 19 21 23 25 27
9 4 2 3 4 11 14 6 2 1 2 2 3 1 6 8 6 8 11 12 9 3 2 3 2 0 1 1 1 1 2 2 2 1 1 2 1 3 3 6 6 5 4 2 1 1 2 3 2 2 3 4 7 7 4 3 2 3 2 1 1 0 2 2 4 4 1 1 2 3 2 6 5 3 5 6 8 9 11 12 10 10 13 16 18 20 23 27
11 8 4 1 4 12 10 3 4 4 1 5 7 4 6 6 5 7 10 11 8 3 3 2 1 1 1 0 1 3 3 1 3 3 2 2 2 2 6 10 7 4 4 1 2 1 1 3 2 2 3 4 6 7 5 5 4 3 2 2 3 3 2 3 5 3 2 3 2 2 2 6 5 1 5 8 10 10 10 11 10 8 9 12 16 19 22 26
12 11 5 2 7 10 5 1 2 4 3 6 6 5 7 5 5 7 5 6 6 0 2 1 0 1 1 1 2 1 1 1 3 4 2 1 3 5 16 19 11 3 1 3 3 2 0 0 2 2 4 6 6 6 6 6 4 2 2 2 3 3 3 1 1 1 1 4 4 4 4 5 5 4 4 6 7 7 8 10 11 10 11 13 16 19 21 24
10 8 7 8 9 6 6 4 1 1 3 6 5 5 6 4 5 8 7 7 7 1 2 1 1 3 1 3 3 1 0 2 1 3 3 2 4 6 16 20 14 6 4 3 3 5 2 2 3 3 3 4 2 2 3 3 3 1 2 2 2 3 3 2 2 2 1 3 2 4 4 6 6 5 5 4 6 7 9 12 13 13 15 18 20 21 21 21
6 3 6 10 10 6 7 7 8 5 2 4 4 5 4 3 6 10 9 6 5 5 1 2 2 3 2 4 3 2 2 1 2 2 2 3 3 5 12 15 12 12 12 10 6 3 2 1 1 5 6 6 5 6 5 2 3 4 6 6 1 2 1 3 3 1 4 2 3 4 5 7 8 4 6 7 7 6 8 10 12 14 16 18 18 17 17 17
4 1 2 6 8 6 6 8 12 7 4 4 3 3 4 4 4 6 5 3 6 9 4 1 4 3 2 3 1 1 3 4 3 3 2 3 2 5 11 9 8 13 14 11 9 3 4 2 2 4 6 7 7 8 6 3 5 7 9 11 4 3 2 3 3 5 3 2 5 7 5 5 8 2 5 4 5 4 5 5 8 12 12 11 11 12 13 13
4 1 3 4 3 2 4 8 11 9 7 6 2 3 4 5 4 3 4 4 8 10 5 4 7 6 4 4 2 0 4 5 4 3 3 4 3 5 9 6 6 12 13 8 8 3 4 2 4 4 5 7 7 8 7 6 6 7 8 10 6 3 5 5 6 6 6 4 7 7 4 6 10 1 5 5 7 6 5 5 5 7 8 9 11 12 13 15
5 2 2 5 4 3 5 10 12 9 7 6 3 2 3 4 5 3 3 3 5 7 7 4 6 8 6 4 4 2 2 1 1 3 1 2 4 3 4 5 5 10 11 7 6 3 3 3 4 2 3 6 5 7 8 7 8 9 8 7 6 6 7 7 7 7 7 6 9 7 5 9 10 6 6 8 9 7 5 3 4 8 8 9 11 12 15 18
6 3 6 8 7 7 8 9 9 6 5 5 3 4 4 3 3 2 2 3 1 3 6 5 2 6 4 4 4 3 1 2 3 2 1 1 3 2 1 2 3 5 7 4 2 4 3 2 2 2 2 5 6 7 8 6 8 9 5 1 3 5 6 6 6 5 4 6 7 6 8 9 6 6 4 1 2 1 4 7 8 9 8 10 11 13 15 16
4 2 6 7 4 5 7 7 6 3 3 4 3 4 5 5 5 4 2 3 6 4 3 4 2 1 3 5 4 3 3 3 5 3 3 3 3 3 3 3 3 5 6 2 1 3 3 2 3 4 2 5 6 5 5 5 6 8 4 2 4 7 6 5 5 4 4 6 6 5 6 6 4 4 2 6 8 6 7 8 9 9 9 10 11 11 12 12
4 3 3 4 2 3 5 5 5 2 2 5 6 5 5 6 9 7 3 3 7 7 4 4 4 2 3 5 4 4 4 3 4 4 4 4 5 6 8 10 9 6 3 1 2 1 1 2 2 2 0 5 5 3 4 6 7 8 6 6 8 8 6 4 4 4 5 5 4 5 6 6 4 1 3 5 6 6 5 6 9 9 8 8 8 8 9 10
Wind_Direction
346 345 341 341 347 348 352 357 359 359 3 3 357 347 316 265 247 248 244 228 223 233 243 248 254 266 273 278 277 273 270 267 262 255 257 234 191 190 181 176 181 181 208 235 241 232 209 196 179 165 189 241 273 271 250 256 256 252 194 178 229 233 226 202 230 278 303 302 308 326 87 109 113 103 104 107 104 109 114 113 122 126 141 152 150 149 152 153
343 343 339 340 345 347 351 355 0 1 4 5 1 4 345 285 252 239 227 223 222 233 243 254 262 271 278 280 281 281 282 284 275 265 260 215 195 197 186 175 174 182 217 244 264 243 218 198 177 182 278 263 250 254 253 257 235 207 155 182 225 219 226 217 261 289 308 295 293 307 100 122 128 128 118 111 100 103 98 98 112 115 125 139 145 151 155 156
345 348 345 343 343 349 354 357 2 1 4 6 6 15 14 21 293 232 208 216 221 233 244 258 265 276 279 280 286 291 295 295 285 278 258 215 208 205 204 185 171 204 249 269 268 241 221 208 202 296 300 272 247 248 254 262 259 217 193 223 239 235 287 297 292 291 304 320 319 329 130 133 133 137 125 122 122 113 116 123 117 119 129 140 149 155 157 156
352 355 354 350 346 353 358 358 2 2 7 9 10 18 22 53 78 137 194 211 219 230 238 254 265 273 277 283 292 294 303 309 297 296 164 219 201 201 216 187 184 229 255 267 262 234 219 216 228 290 299 272 253 252 250 241 252 216 184 207 229 245 298 276 281 286 296 345 357 359 76 125 131 137 133 128 120 114 145 145 142 142 144 150 154 157 158 157
359 0 358 354 351 355 359 0 3 4 8 10 12 16 21 45 98 136 182 208 216 227 235 253 262 270 279 286 288 290 310 338 346 62 137 212 185 206 226 202 210 232 249 258 251 225 214 216 244 279 274 255 251 251 249 235 236 263 251 241 231 228 255 264 267 276 281 347 7 10 24 16 98 119 139 138 134 172 164 154 153 153 156 159 158 157 158 158
6 8 5 2 359 360 2 4 5 5 7 8 12 13 18 27 67 141 198 212 220 229 232 247 259 269 279 279 283 294 308 336 331 23 92 224 232 233 238 227 226 236 245 248 234 211 205 214 246 264 238 241 233 212 243 242 230 245 269 261 250 238 236 260 264 269 274 33 25 2 2 359 80 86 140 140 152 169 163 158 157 159 161 160 157 157 157 159
15 18 18 14 9 10 9 8 7 7 7 7 10 12 11 7 8 214 217 216 221 220 224 246 258 260 280 286 292 299 286 285 302 327 316 277 293 262 236 231 230 232 229 217 203 191 199 219 235 252 251 264 246 224 248 255 233 219 251 260 254 245 238 252 258 255 266 69 59 9 17 15 77 94 117 103 148 166 163 159 158 157 157 156 155 156 158 161
23 26 30 28 24 23 19 15 12 11 10 7 8 7 7 1 350 318 261 225 212 176 206 238 251 249 297 304 307 302 290 302 324 315 293 283 299 248 193 198 205 207 196 185 182 180 205 230 244 262 252 238 243 238 252 264 248 223 237 249 248 247 241 241 230 213 251 78 57 23 24 13 81 120 102 91 136 158 162 157 153 152 152 154 155 157 159 162
35 39 43 40 36 30 25 21 15 12 11 8 6 3 3 359 344 330 302 259 167 155 201 231 236 222 131 285 306 310 297 339 14 345 301 268 266 179 171 181 185 176 175 175 178 189 215 247 265 273 259 259 262 259 264 261 247 229 229 240 246 243 215 204 194 176 194 146 61 35 343 12 99 117 77 119 138 149 156 154 152 152 153 156 157 159 160 162
47 51 51 46 40 32 25 19 13 11 8 5 4 359 357 353 341 332 312 304 186 180 190 191 188 171 217 268 302 321 335 54 30 11 359 191 144 149 148 144 156 155 163 173 188 206 232 292 301 297 284 272 267 276 287 250 254 270 247 236 230 208 183 174 173 166 158 172 94 92 284 324 99 115 63 151 144 145 149 149 153 154 156 160 160 163 165 167
52 53 50 44 37 29 23 16 11 9 7 5 1 358 354 348 340 330 317 290 215 189 187 181 185 199 238 274 252 262 19 67 20 10 36 152 137 131 128 126 146 160 182 199 222 243 278 305 309 302 286 268 285 313 303 274 292 294 266 227 219 172 159 168 161 158 154 174 178 128 277 314 0 103 164 166 151 148 148 150 158 159 160 163 164 167 170 172
52 50 47 41 34 28 24 17 11 10 10 9 5 3 357 353 350 333 323 286 221 172 185 181 205 226 268 280 261 272 23 75 339 3 40 141 146 134 133 180 237 277 285 270 276 291 298 305 303 285 275 275 315 340 313 310 314 298 271 201 304 18 37 202 173 159 152 162 179 123 10 309 321 173 163 164 158 152 153 156 163 164 164 166 168 170 173 176
48 46 42 35 30 28 25 19 14 11 13 14 13 15 13 11 13 355 338 294 219 161 190 207 257 279 298 284 269 333 219 239 273 252 337 52 180 173 152 267 292 302 299 291 298 307 299 300 297 290 295 297 303 319 309 311 310 294 293 38 346 10 342 253 198 169 151 167 182 146 358 279 275 239 170 163 167 157 154 162 166 167 167 168 172 174 176 179
40 39 33 28 26 25 25 22 18 14 13 14 15 19 23 21 16 6 352 322 226 174 198 297 321 319 304 281 256 199 220 228 237 226 223 253 254 259 194 213 293 299 294 291 296 299 295 298 302 303 299 289 304 313 315 318 312 306 341 9 28 8 288 274 220 168 172 201 178 147 186 252 263 256 207 171 175 166 159 168 170 168 170 171 174 176 177 179
25 25 21 19 19 21 22 21 20 20 16 13 11 11 16 18 17 12 354 351 287 212 2 339 333 327 302 282 247 208 215 218 228 232 226 230 268 270 230 210 230 254 267 272 287 299 297 297 302 304 297 300 324 330 331 333 331 5 14 328 350 240 268 297 302 175 193 217 169 144 193 254 261 256 245 189 177 174 170 172 172 171 172 174 176 177 177 177
6 7 9 9 11 14 15 15 16 17 16 13 9 3 360 2 7 8 341 327 323 275 311 317 328 333 299 283 266 216 215 225 234 239 230 236 261 257 246 263 259 254 255 265 287 299 294 292 294 292 290 305 350 27 7 359 343 3 77 269 278 258 297 318 315 219 202 181 168 170 175 252 269 242 241 227 187 181 177 176 175 174 175 175 176 176 175 175
354 347 353 0 4 4 2 5 5 4 6 9 7 0 351 340 340 351 335 314 319 290 282 277 296 308 277 266 289 236 216 228 236 228 225 237 254 250 256 270 274 268 261 268 274 274 278 277 271 273 280 322 58 76 28 354 317 328 9 329 258 237 285 294 307 272 204 164 192 197 182 216 246 228 228 251 208 187 179 180 177 176 177 176 177 176 176 177
344 334 335 340 349 351 349 353 353 349 354 5 9 5 359 344 322 324 332 327 316 305 287 257 259 309 278 269 299 290 251 232 218 213 217 228 240 247 260 264 279 279 262 260 261 256 260 268 236 304 348 359 20 85 104 250 224 269 304 349 307 279 265 262 279 280 189 174 187 184 203 228 246 278 258 242 211 188 176 178 176 174 179 179 178 179 179 180
336 329 323 317 326 333 339 347 349 348 356 9 10 12 20 10 350 305 329 323 290 265 279 242 217 242 281 289 302 305 269 210 191 206 215 220 230 245 260 259 273 279 257 246 266 244 216 254 22 17 306 291 257 155 177 207 182 200 228 162 230 284 282 269 266 284 185 169 175 176 203 224 237 285 272 198 194 178 165 172 177 178 183 184 182 182 183 183
334 330 321 313 316 322 335 349 4 19 15 19 14 20 29 15 19 343 323 304 282 275 283 273 256 263 274 292 304 288 175 181 197 235 230 220 229 242 251 249 269 290 244 179 242 273 181 197 265 217 229 231 232 212 185 186 165 164 122 121 233 272 295 282 278 318 355 137 319 176 210 253 253 282 274 223 209 187 170 171 179 185 187 187 186 186 186 189
337 335 330 323 317 323 336 356 35 41 10 19 20 22 15 3 9 329 323 306 295 288 279 274 269 269 273 284 290 253 208 194 219 255 242 226 228 232 238 230 258 317 256 195 197 303 109 184 241 226 223 218 218 206 159 126 109 118 103 60 308 291 293 287 287 325 4 103 340 16 46 301 283 287 289 270 255 238 214 188 184 189 191 192 191 190 190 192
345 343 344 341 335 336 348 9 35 17 4 9 11 15 12 8 354 316 323 305 296 291 278 274 270 268 270 276 276 263 264 252 241 256 228 220 221 211 219 195 185 253 278 122 89 336 18 228 245 235 223 204 198 170 126 111 91 87 93 69 317 285 293 304 313 328 10 86 288 355 39 292 276 268 270 256 244 252 245 227 204 195 193 195 195 193 193 192
355 357 6 16 13 5 17 23 27 14 7 1 356 360 360 356 321 314 316 290 290 292 280 270 264 264 264 271 273 249 249 242 241 254 227 215 212 206 213 181 189 263 328 12 163 204 259 239 242 235 200 158 174 128 84 61 64 87 93 83 284 283 353 299 306 328 1 51 189 52 9 293 288 296 268 225 219 235 247 245 241 219 202 199 199 198 195 191
359 9 35 78 102 86 29 19 11 356 356 9 10 1 350 336 318 319 314 278 286 291 273 259 261 267 266 271 272 234 230 232 248 253 226 214 207 200 215 206 186 249 270 226 186 188 238 251 249 211 168 173 179 168 104 84 346 294 167 149 235 276 252 212 266 322 352 352 8 77 10 317 308 318 299 265 229 232 244 243 249 248 226 209 203 201 198 194
356 13 56 117 162 175 15 21 9 354 358 34 28 3 350 332 318 321 321 316 291 286 282 266 253 258 256 246 238 223 221 240 254 257 242 218 203 189 225 217 190 236 255 237 191 197 249 259 256 168 186 193 179 205 182 135 68 309 241 199 212 242 251 248 327 5 27 346 304 86 17 300 310 311 278 286 309 294 268 236 236 246 242 221 206 203 200 199
349 7 50 125 183 227 309 35 27 18 37 42 9 342 326 309 310 317 325 56 325 283 309 259 217 226 227 201 205 218 271 268 265 262 246 220 204 195 253 243 190 239 248 232 187 210 260 263 218 169 187 183 158 213 211 140 116 313 251 205 193 208 236 271 71 83 103 258 283 61 151 254 308 306 260 267 299 293 285 260 239 243 242 223 205 203 201 201
343 355 33 105 186 222 214 95 44 31 26 354 335 329 321 306 304 308 331 41 326 279 276 228 195 201 212 203 204 186 57 298 287 234 211 205 204 197 229 263 318 260 243 61 16 268 287 332 94 139 137 123 117 225 221 133 115 238 244 193 191 241 229 186 110 105 172 225 315 4 125 223 286 269 262 278 298 297 289 274 251 240 238 224 207 205 203 202
342 349 17 75 153 147 126 123 50 16 351 326 323 329 328 313 300 304 79 61 272 269 293 232 211 223 216 202 205 196 209 280 344 192 189 190 200 186 204 228 203 239 238 87 302 271 279 301 199 149 123 136 175 220 208 128 123 241 238 198 220 226 183 156 103 95 102 76 317 312 27 246 273 270 288 314 288 288 285 274 261 241 236 223 208 206 206 207
345 351 4 81 120 107 111 136 332 335 317 317 326 329 328 319 308 355 83 77 256 257 240 209 221 230 207 191 209 215 225 239 199 186 184 188 205 205 238 235 191 218 251 140 198 261 254 239 221 152 135 202 219 227 178 136 195 242 198 165 311 57 113 115 97 94 38 50 262 269 311 251 274 283 301 321 275 270 275 274 264 246 240 225 208 204 204 202
357 0 356 121 135 123 123 301 311 318 318 321 325 325 319 311 336 49 61 267 250 246 174 179 234 225 179 157 239 226 218 233 206 182 187 197 202 205 230 244 195 129 324 31 188 249 267 259 243 164 174 199 203 221 184 171 214 233 110 86 20 17 20 29 59 82 54 328 257 250 212 151 282 287 262 242 249 260 274 287 285 259 241 227 215 209 205 200
27 24 6 1 183 220 328 334 320 329 337 332 328 327 320 320 55 85 139 247 250 310 351 206 283 320 148 162 248 246 236 251 200 172 193 216 195 204 206 255 328 49 0 342 306 293 319 311 258 210 200 186 166 228 233 184 161 75 78 79 49 342 1 20 356 37 76 261 261 261 185 130 206 271 255 250 258 265 270 274 282 269 231 221 219 216 213 210
45 43 36 44 40 359 345 339 330 340 349 347 340 335 14 34 35 121 242 295 308 300 342 341 314 326 249 224 218 222 220 243 204 173 188 193 174 205 186 187 185 50 337 281 293 328 325 255 274 278 216 184 137 254 303 356 44 84 89 73 78 336 3 8 314 331 216 250 259 262 132 134 228 255 256 263 268 280 289 286 286 270 225 214 218 220 219 215
53 57 68 80 68 36 13 358 343 349 2 1 349 347 82 70 338 234 259 329 302 278 335 342 313 330 336 311 283 243 215 227 219 195 192 174 176 228 258 215 169 130 238 233 248 348 328 301 323 353 276 216 131 152 272 323 34 127 153 126 125 120 58 294 275 286 263 264 262 247 200 218 283 265 242 245 269 292 307 315 317 296 235 218 220 222 223 220
56 67 64 57 49 29 21 15 359 2 5 358 357 36 66 66 244 257 302 285 281 308 341 339 323 341 2 338 288 317 344 269 243 184 176 152 151 244 284 256 196 160 164 186 198 177 191 301 304 241 274 245 157 178 184 177 159 179 168 135 139 147 145 214 227 216 247 268 281 287 245 198 209 256 263 290 330 349 12 6 352 346 305 252 238 226 220 218
19 49 46 24 13 11 13 5 359 8 359 349 15 71 81 224 248 271 274 261 287 329 336 351 7 7 347 325 320 1 20 309 316 46 128 173 167 202 221 225 214 182 131 159 221 182 159 241 256 253 233 181 211 298 148 123 72 264 142 103 140 181 165 190 201 190 193 257 295 302 250 213 199 269 310 10 22 27 39 33 18 18 17 1 345 317 229 214
347 352 12 18 356 357 2 351 350 358 348 354 48 68 198 210 219 192 256 296 324 339 352 1 18 30 337 325 339 357 8 355 354 16 335 278 225 222 219 231 228 187 152 161 226 190 130 252 268 312 352 157 143 335 330 171 210 252 136 168 220 166 144 172 256 229 108 185 269 262 251 286 331 317 332 27 38 34 38 32 30 38 39 34 29 33 33 28
341 346 324 314 352 351 343 336 335 331 335 41 83 231 224 222 233 163 284 345 106 37 57 41 338 0 348 329 332 347 352 351 0 2 324 313 311 303 311 312 336 192 178 168 184 196 143 265 284 334 4 287 41 5 321 255 114 78 257 228 224 59 86 129 279 340 30 248 274 298 243 273 330 298 331 26 33 28 29 30 33 39 43 38 32 37 41 36
337 340 317 296 345 329 318 321 315 296 336 66 86 247 217 244 316 97 133 225 116 61 77 120 265 2 51 318 291 328 347 344 351 350 327 313 302 340 6 330 353 359 303 167 126 185 119 261 291 322 321 297 8 33 340 354 55 82 255 259 184 70 302 58 136 242 267 242 280 310 280 259 215 233 351 32 32 32 35 38 38 33 36 36 32 34 38 38
341 338 339 21 342 313 324 329 304 255 65 66 225 257 240 243 303 29 36 355 97 90 80 176 206 5 10 267 268 296 8 347 333 337 325 316 304 353 22 354 334 358 7 45 96 292 74 119 275 305 314 302 359 39 333 328 7 51 6 347 35 161 185 178 177 177 175 208 244 307 314 289 230 215 129 82 58 68 66 55 51 36 30 32 31 30 29 29
353 344 38 44 359 340 352 342 313 137 86 184 199 248 280 265 297 5 76 70 77 125 149 209 185 292 283 275 301 293 349 357 319 314 272 313 336 335 0 4 322 352 23 50 67 337 36 96 245 297 335 338 330 119 150 143 351 358 352 342 334 323 248 237 271 146 137 167 188 221 277 266 250 220 139 120 101 89 94 86 68 51 43 36 29 23 18 17
10 4 53 22 5 356 351 338 317 111 132 238 225 256 312 319 335 357 35 34 6 175 192 197 141 199 235 301 329 290 340 338 318 351 266 313 11 320 321 355 6 352 27 45 40 20 39 92 199 287 338 314 260 253 202 177 195 191 228 272 272 273 287 319 291 293 99 139 164 168 233 261 254 214 147 122 111 104 102 101 86 60 49 37 24 14 7 3
10 354 325 353 354 351 347 333 325 16 158 328 327 310 340 338 341 350 357 2 4 28 53 51 77 19 242 185 296 306 2 318 289 336 259 291 309 228 303 1 22 45 78 86 325 219 147 105 121 244 251 241 264 278 296 299 256 173 170 239 225 32 83 139 234 269 333 179 162 130 227 266 255 179 140 123 121 114 95 91 92 70 49 31 18 7 356 351
354 337 338 32 330 344 357 8 348 346 304 345 343 342 353 347 337 344 355 359 356 23 48 38 92 19 328 85 12 358 17 327 270 275 249 316 310 280 358 0 347 15 70 100 288 293 79 78 67 297 292 311 308 307 333 355 22 60 356 353 72 68 58 163 196 198 198 221 157 112 264 270 278 343 103 106 108 105 82 70 72 58 38 22 11 2 353 348
342 327 311 314 322 339 18 112 318 320 313 343 348 342 349 354 344 344 357 348 328 288 102 316 68 52 325 29 59 336 5 9 291 305 325 324 297 356 18 11 351 330 232 219 194 158 264 103 85 16 323 332 343 341 343 351 16 46 289 316 66 55 14 329 225 82 211 227 168 163 242 253 269 322 56 91 86 74 50 38 34 28 23 12 4 357 351 348
346 325 299 311 328 9 80 110 84 338 324 344 340 325 338 352 345 338 325 310 307 298 144 238 75 73 27 35 41 305 142 132 252 318 349 323 296 4 21 15 6 350 298 273 144 133 166 203 133 127 242 260 282 271 261 281 308 311 258 275 43 25 4 14 30 51 245 257 186 175 238 268 285 335 13 29 35 28 12 16 20 19 12 360 354 352 348 348
1 337 308 321 337 29 77 72 54 46 341 349 333 312 330 323 321 332 322 298 322 3 358 232 60 57 34 33 34 322 319 219 248 292 329 323 311 348 4 10 20 19 6 5 20 79 85 22 152 163 194 205 201 218 222 228 285 293 291 290 303 86 70 95 95 197 209 250 286 229 226 273 294 350 24 6 10 356 337 3 14 4 359 354 351 350 346 345
11 29 350 340 330 349 29 33 29 20 325 333 319 272 305 305 302 332 324 304 19 24 15 343 32 44 351 355 29 284 326 331 331 341 348 344 311 325 345 4 35 28 20 8 348 9 84 359 282 194 212 213 200 219 232 234 257 264 278 284 278 132 155 163 185 221 177 104 283 252 199 255 284 74 87 342 320 298 304 346 353 347 359 10 7 1 353 346
29 23 40 24 316 310 6 346 345 345 324 321 294 234 289 300 286 305 311 324 20 33 29 1 16 27 17 19 74 294 346 359 357 344 347 353 337 333 342 345 13 26 31 12 345 26 121 270 261 203 240 243 217 226 228 222 244 246 248 264 266 200 204 219 222 210 163 164 251 251 180 242 274 205 143 242 246 230 263 296 331 4 27 25 12 2 352 344
25 353 356 8 331 282 302 313 322 335 329 321 313 261 270 276 275 292 2 7 16 34 50 43 358 358 13 47 99 108 353 358 333 324 316 337 339 351 343 317 343 26 34 14 341 29 125 255 255 208 267 276 253 244 236 227 243 251 247 243 228 213 222 236 233 206 183 210 244 252 241 251 258 231 211 233 233 242 289 329 53 62 46 15 2 351 340 337
26 10 335 338 327 306 312 325 336 341 332 336 329 295 304 322 302 300 42 66 35 9 54 85 0 342 2 30 74 108 271 215 194 279 292 304 337 339 272 290 313 355 7 2 335 16 38 276 275 67 356 300 284 260 250 245 245 253 261 205 194 235 247 243 236 209 202 241 250 255 267 269 253 235 248 253 197 259 27 56 59 46 27 7 355 342 338 339
60 80 350 335 311 317 339 343 339 335 339 355 349 319 334 352 342 322 308 105 114 113 111 137 167 329 20 17 37 154 196 175 172 241 279 250 279 275 251 284 312 322 338 336 288 2 17 294 334 45 19 287 279 267 280 320 305 276 263 186 219 251 253 235 231 210 199 238 264 276 279 280 272 264 325 51 70 66 51 42 24 12 3 353 346 342 346 347
60 120 28 6 287 316 5 345 331 13 21 347 344 339 335 341 353 1 350 29 66 74 82 111 111 76 23 348 323 255 246 242 230 260 277 265 283 286 277 284 283 269 262 283 295 277 177 261 304 73 217 271 275 313 7 11 331 287 249 197 203 228 245 264 278 253 215 209 242 256 250 257 276 337 48 52 63 69 47 12 355 344 338 343 355 4 359 344